Вернуться в каталог

STARLINK-5246

АктивенСвязьVLEO
NORAD 54198·PAYLOAD·🇺🇸 United States

Запущен Oct 28, 2022 с Vandenberg Space Force Base

Loading…

Ближайшие Пролёты (ближайшие 24 часа)

TLE

СвежийSource: CelesTrak SupGP

Эпоха: Sep 14, 2026, 22:09 UTC

1 54198C 22141AT  26257.92340278 -.00015479  00000+0 -44275-3 0  2573
2 54198  53.1582 214.0221 0001304 100.2376  50.5669 15.35413923    10

Отслеживайте STARLINK-5246 в реальном времени с AllMySat

Download on the App Store